DW0602 Weather Reports


Display with metric or nautical units.
time (UTC)temp
F
wind
direction
speed
MPH
gust
MPH
rain 1hr
in
rain 24hr
in
rain mn
in
humidity
%
barometer
mb
20260503000345 61 131 5.0 12.0 0.00 0.00 0.00 22 1019.1
20260503000033 61 162 4.0 16.0 0.00 0.00 0.00 22 1019.7
20260502235846 61 82 6.0 15.0 0.00 0.00 0.00 22 1019.1
20260502235343 62 227 6.0 15.0 0.00 0.00 0.00 21 1019.1
20260502234844 62 143 5.0 14.0 0.00 0.00 0.00 22 1019.1
20260502234515 61 140 4.0 14.0 0.00 0.00 0.00 21 1019.8
20260502234340 62 163 5.0 13.0 0.00 0.00 0.00 23 1019.2
20260502233840 61 115 6.0 11.0 0.00 0.00 0.00 22 1019.2
20260502233339 62 99 5.0 11.0 0.00 0.00 0.00 23 1019.2
20260502233021 61 114 7.0 13.0 0.00 0.00 0.00 21 1020.0
20260502232839 62 136 5.0 11.0 0.00 0.00 0.00 22 1019.3
20260502232338 62 169 4.0 11.0 0.00 0.00 0.00 22 1019.3
20260502231838 62 154 5.0 10.0 0.00 0.00 0.00 22 1019.3
20260502231525 62 98 5.0 14.0 0.00 0.00 0.00 23 1020.1
20260502231340 62 162 5.0 13.0 0.00 0.00 0.00 22 1019.3
20260502230839 62 110 6.0 13.0 0.00 0.00 0.00 21 1019.3
20260502230338 62 145 5.0 10.0 0.00 0.00 0.00 22 1019.5
20260502230024 62 84 5.0 19.0 0.00 0.00 0.00 20 1020.0
20260502225335 63 112 6.0 18.0 0.00 0.00 0.00 22 1019.3
20260502224834 63 117 6.0 18.0 0.00 0.00 0.00 22 1019.5
20260502224527 63 250 4.0 12.0 0.00 0.00 0.00 21 1020.2
20260502224337 63 172 5.0 10.0 0.00 0.00 0.00 22 1019.5
20260502223836 63 153 5.0 10.0 0.00 0.00 0.00 22 1019.5
20260502223336 62 117 5.0 10.0 0.00 0.00 0.00 21 1019.6
20260502223016 63 123 4.0 12.0 0.00 0.00 0.00 21 1020.2
20260502222834 63 176 5.0 10.0 0.00 0.00 0.00 22 1019.6
20260502222336 64 143 4.0 11.0 0.00 0.00 0.00 21 1019.7
20260502221836 64 157 3.0 11.0 0.00 0.00 0.00 22 1019.8
20260502221522 64 117 1.0 9.0 0.00 0.00 0.00 21 1020.4
20260502221337 64 283 4.0 9.0 0.00 0.00 0.00 21 1019.8
20260502220830 64 168 4.0 9.0 0.00 0.00 0.00 24 1019.9
20260502220026 62 151 4.0 11.0 0.00 0.00 0.00 22 1020.6
20260502215831 63 165 4.0 10.0 0.00 0.00 0.00 22 1019.9
20260502215332 64 126 3.0 10.0 0.00 0.00 0.00 21 1020.1
20260502214531 64 194 3.0 9.0 0.00 0.00 0.00 22 1020.8
20260502214331 64 158 3.0 9.0 0.00 0.00 0.00 24 1020.3
20260502213830 64 191 4.0 11.0 0.00 0.00 0.00 23 1020.3
20260502213332 64 240 4.0 11.0 0.00 0.00 0.00 23 1020.4
20260502213026 63 171 6.0 11.0 0.00 0.00 0.00 23 1021.0
20260502212832 64 195 3.0 9.0 0.00 0.00 0.00 24 1020.4
20260502212332 64 102 3.0 12.0 0.00 0.00 0.00 24 1020.6
20260502211831 63 165 3.0 12.0 0.00 0.00 0.00 25 1020.6
20260502211528 63 88 5.0 14.0 0.00 0.00 0.00 21 1021.2
20260502210832 63 167 4.0 13.0 0.00 0.00 0.00 23 1020.7
20260502210331 64 138 4.0 11.0 0.00 0.00 0.00 20 1020.9
20260502210022 63 147 6.0 13.0 0.00 0.00 0.00 22 1021.5
20260502205832 64 127 4.0 13.0 0.00 0.00 0.00 24 1020.9
20260502204834 63 146 4.0 9.0 0.00 0.00 0.00 24 1020.9
20260502204524 62 152 1.0 12.0 0.00 0.00 0.00 21 1021.5
20260502204332 63 342 4.0 10.0 0.00 0.00 0.00 22 1021.0
20260502203320 61 70 5.0 9.0 0.00 0.00 0.00 25 1021.0
20260502203027 60 144 4.0 10.0 0.00 0.00 0.00 23 1021.6
20260502202316 61 105 4.0 11.0 0.00 0.00 0.00 23 1021.2
20260502201816 62 143 5.0 11.0 0.00 0.00 0.00 25 1021.3
20260502201529 62 94 4.0 12.0 0.00 0.00 0.00 23 1021.7
20260502201314 62 129 3.0 11.0 0.00 0.00 0.00 25 1021.3
20260502200816 62 229 3.0 10.0 0.00 0.00 0.00 24 1021.2
20260502200314 63 54 3.0 10.0 0.00 0.00 0.00 23 1021.2
20260502200020 62 172 4.0 10.0 0.00 0.00 0.00 25 1021.7
20260502195814 62 158 3.0 10.0 0.00 0.00 0.00 26 1021.3
20260502195315 62 131 4.0 11.0 0.00 0.00 0.00 25 1021.3
20260502194523 61 175 4.0 11.0 0.00 0.00 0.00 26 1021.9
20260502194310 61 213 3.0 8.0 0.00 0.00 0.00 26 1021.3
20260502193810 61 128 5.0 10.0 0.00 0.00 0.00 24 1021.4
20260502193311 62 297 4.0 10.0 0.00 0.00 0.00 25 1021.5
20260502193026 61 192 6.0 10.0 0.00 0.00 0.00 25 1022.0
20260502192808 62 126 3.0 9.0 0.00 0.00 0.00 25 1021.5
20260502192310 62 175 4.0 11.0 0.00 0.00 0.00 23 1021.7
20260502191806 63 192 4.0 11.0 0.00 0.00 0.00 24 1021.7
20260502191527 62 153 4.0 12.0 0.00 0.00 0.00 24 1022.2
20260502191306 62 157 5.0 12.0 0.00 0.00 0.00 25 1021.7
20260502190806 62 189 5.0 12.0 0.00 0.00 0.00 24 1021.7
20260502190304 62 174 4.0 10.0 0.00 0.00 0.00 25 1021.9
20260502190003 61 142 3.0 10.0 0.00 0.00 0.00 24 1022.2
20260502185805 61 238 4.0 9.0 0.00 0.00 0.00 25 1021.8
20260502185259 61 103 3.0 9.0 0.00 0.00 0.00 22 1021.9
20260502184752 61 158 2.0 8.0 0.00 0.00 0.00 25 1021.9
20260502184505 61 133 0.0 12.0 0.00 0.00 0.00 25 1022.4
20260502184252 61 79 3.0 10.0 0.00 0.00 0.00 24 1021.9
20260502183752 61 150 3.0 10.0 0.00 0.00 0.00 24 1022.0
20260502183008 60 331 1.0 8.0 0.00 0.00 0.00 22 1022.6
20260502182753 61 106 3.0 8.0 0.00 0.00 0.00 24 1022.1
20260502182251 61 162 3.0 10.0 0.00 0.00 0.00 24 1022.3
20260502181749 62 276 3.0 10.0 0.00 0.00 0.00 23 1022.3
20260502181511 61 229 3.0 10.0 0.00 0.00 0.00 22 1022.8
20260502181249 61 193 4.0 10.0 0.00 0.00 0.00 22 1022.4
20260502180748 61 244 3.0 8.0 0.00 0.00 0.00 27 1022.4
20260502180248 60 118 4.0 7.0 0.00 0.00 0.00 25 1022.4
20260502170222 60 233 2.0 6.0 0.00 0.00 0.00 26 1022.7
20260502164159 58 276 2.0 6.0 0.00 0.00 0.00 24 1022.7
20260502163652 58 294 2.0 6.0 0.00 0.00 0.00 24 1022.9
20260502163146 58 41 2.0 6.0 0.00 0.00 0.00 25 1022.7
20260502163004 57 289 1.0 7.0 0.00 0.00 0.00 28 1023.2
20260502162641 58 307 2.0 6.0 0.00 0.00 0.00 25 1022.9
20260502161629 57 258 2.0 4.0 0.00 0.00 0.00 23 1022.9
20260502161505 57 123 1.0 4.0 0.00 0.00 0.00 24 1023.3
20260502161123 57 274 3.0 9.0 0.00 0.00 0.00 23 1022.9
20260502160616 57 266 2.0 9.0 0.00 0.00 0.00 24 1022.9
20260502160111 58 15 2.0 4.0 0.00 0.00 0.00 25 1023.0
20260502152022 54 238 3.0 5.0 0.00 0.00 0.00 26 1023.0
20260502151517 54 314 2.0 5.0 0.00 0.00 0.00 25 1023.0
20260502151506 54 309 2.0 6.0 0.00 0.00 0.00 25 1023.5
20260502151010 54 205 2.0 5.0 0.00 0.00 0.00 28 1023.1
20260502150504 54 314 2.0 5.0 0.00 0.00 0.00 27 1023.1
20260502123306 34 334 0.0 1.0 0.00 0.01 0.00 66 1022.6
20260502123014 33 328 0.0 1.0 0.00 0.01 0.00 65 1022.8
20260502122803 33 334 0.0 1.0 0.00 0.01 0.00 65 1022.5
20260502122300 33 334 0.0 1.0 0.00 0.01 0.00 65 1022.5
20260502121757 33 334 0.0 1.0 0.00 0.01 0.00 65 1022.5
20260502121523 32 328 0.0 1.0 0.00 0.01 0.00 64 1022.8
20260502120755 33 334 0.0 1.0 0.00 0.01 0.00 65 1022.4
20260502120255 33 334 0.0 1.0 0.00 0.01 0.00 65 1022.5
20260502115753 33 334 0.0 1.0 0.00 0.01 0.00 64 1022.5
20260502115253 33 334 0.0 1.0 0.00 0.01 0.00 64 1022.4
20260502114747 33 334 0.0 1.0 0.00 0.01 0.00 65 1022.4
20260502114529 33 328 0.0 1.0 0.00 0.01 0.00 65 1022.8
20260502114241 33 334 0.0 1.0 0.00 0.01 0.00 65 1022.4
20260502113735 34 334 0.0 1.0 0.00 0.01 0.00 62 1022.5
20260502113230 34 334 1.0 3.0 0.00 0.01 0.00 61 1022.4
20260502113016 33 328 0.0 3.0 0.00 0.01 0.00 60 1022.7
20260502112723 34 334 1.0 3.0 0.00 0.01 0.00 61 1022.4
20260502111711 34 354 1.0 2.0 0.00 0.01 0.00 61 1022.4
20260502111514 33 347 0.0 2.0 0.00 0.01 0.00 61 1022.7
20260502111205 34 354 1.0 3.0 0.00 0.01 0.00 62 1022.4
20260502110659 33 354 1.0 3.0 0.00 0.01 0.00 65 1022.4
20260502110153 33 359 0.0 2.0 0.00 0.01 0.00 63 1022.4
20260502110021 32 355 0.0 1.0 0.00 0.01 0.00 62 1022.7
20260502105647 33 359 0.0 1.0 0.00 0.01 0.00 62 1022.4
20260502105141 33 359 0.0 1.0 0.00 0.01 0.00 62 1022.4
20260502104537 32 355 0.0 1.0 0.00 0.01 0.00 64 1022.8
20260502104130 32 359 0.0 1.0 0.00 0.01 0.00 65 1022.4
20260502103624 31 359 0.0 1.0 0.00 0.01 0.00 65 1022.4
20260502103117 30 359 0.0 0.0 0.00 0.01 0.00 67 1022.4
20260502103026 30 355 0.0 0.0 0.00 0.01 0.00 67 1022.7
20260502102612 30 359 0.0 0.0 0.00 0.01 0.00 68 1022.4
20260502102105 30 359 0.0 0.0 0.00 0.01 0.00 68 1022.3
20260502101558 31 359 0.0 1.0 0.00 0.01 0.00 68 1022.3
20260502101512 30 355 0.0 1.0 0.00 0.01 0.00 67 1022.6
20260502100554 31 359 0.0 0.0 0.00 0.01 0.00 67 1022.0
20260502090544 31 359 0.0 0.0 0.00 0.01 0.00 65 1022.0
20260502071535 37 338 0.0 0.0 0.00 0.01 0.00 53 1022.3
20260502071524 36 331 0.0 0.0 0.00 0.01 0.00 53 1022.6
20260502071033 37 338 0.0 0.0 0.00 0.01 0.00 53 1022.1
20260502070533 37 338 0.0 0.0 0.00 0.01 0.00 53 1022.3
20260502070033 37 338 0.0 0.0 0.00 0.01 0.00 52 1022.1
20260502070026 37 331 0.0 0.0 0.00 0.01 0.00 52 1022.5
20260502065532 38 338 0.0 0.0 0.00 0.01 0.00 52 1022.0
20260502065033 38 335 0.0 0.0 0.00 0.02 0.00 52 1022.0
20260502064530 38 329 0.0 3.0 0.00 0.02 0.00 50 1022.4
20260502064526 38 335 0.0 3.0 0.00 0.02 0.00 51 1022.0
20260502064019 38 335 0.0 3.0 0.00 0.02 0.00 50 1022.0
20260502063514 39 335 1.0 3.0 0.00 0.02 0.00 50 1022.0
20260502063028 38 330 0.0 4.0 0.00 0.02 0.00 50 1022.5
20260502062502 39 329 3.0 5.0 0.00 0.02 0.00 50 1022.0
20260502061520 37 333 2.0 4.0 0.00 0.02 0.00 53 1022.4
20260502060944 37 339 2.0 4.0 0.00 0.02 0.00 56 1021.9
20260502060438 35 330 1.0 4.0 0.00 0.02 0.00 59 1021.9
20260502060024 34 333 0.0 1.0 0.00 0.02 0.00 60 1022.4
20260502055932 35 340 0.0 1.0 0.00 0.02 0.02 60 1021.9
20260502055426 34 340 0.0 0.0 0.00 0.03 0.02 62 1021.9
20260502054922 34 340 0.0 0.0 0.00 0.03 0.02 63 1021.9
20260502054528 34 333 0.0 0.0 0.00 0.03 0.02 64 1022.3
20260502054414 34 340 0.0 0.0 0.00 0.03 0.02 65 1021.8
20260502053908 35 340 0.0 0.0 0.00 0.04 0.02 65 1021.8
20260502053029 35 333 0.0 1.0 0.00 0.04 0.02 63 1022.2
20260502052856 35 340 0.0 1.0 0.00 0.04 0.02 63 1021.8
20260502052350 35 340 0.0 1.0 0.00 0.04 0.02 62 1021.8
20260502051844 36 340 0.0 1.0 0.00 0.04 0.02 62 1021.7
20260502051528 36 333 0.0 3.0 0.00 0.04 0.02 62 1022.2
20260502051338 36 340 0.0 3.0 0.00 0.04 0.02 62 1021.7
20260502050832 36 340 0.0 3.0 0.00 0.05 0.02 63 1021.8
20260502050326 36 344 0.0 0.0 0.00 0.05 0.02 63 1021.7
20260502050022 36 338 0.0 0.0 0.00 0.05 0.02 63 1022.2
20260502045314 36 344 0.0 0.0 0.00 0.06 0.02 63 1021.8
20260502044808 36 344 0.0 0.0 0.00 0.06 0.02 63 1021.7
20260502044524 36 338 0.0 2.0 0.00 0.06 0.02 62 1022.2
20260502044302 37 344 0.0 2.0 0.00 0.06 0.02 62 1021.7
20260502043756 37 344 0.0 2.0 0.00 0.06 0.02 62 1021.8
20260502043250 37 344 0.0 1.0 0.00 0.06 0.02 63 1021.8
20260502043028 37 338 0.0 1.0 0.00 0.06 0.02 62 1022.2
20260502042743 37 344 0.0 1.0 0.00 0.07 0.02 63 1021.7
20260502042238 38 344 0.0 0.0 0.00 0.07 0.02 63 1021.7
20260502041732 38 344 0.0 0.0 0.00 0.07 0.02 62 1021.7
20260502041535 38 338 0.0 0.0 0.00 0.07 0.02 61 1022.2
20260502041226 38 344 0.0 0.0 0.00 0.07 0.02 61 1021.7
20260502040727 39 344 0.0 1.0 0.00 0.07 0.02 60 1021.7
20260502040222 39 344 0.0 2.0 0.00 0.07 0.02 60 1021.5
20260502040029 39 338 0.0 2.0 0.00 0.07 0.02 59 1022.1
20260502035722 39 344 0.0 2.0 0.00 0.07 0.02 59 1021.5
20260502035224 40 344 0.0 2.0 0.00 0.07 0.02 59 1021.5
20260502034721 40 347 0.0 2.0 0.00 0.08 0.02 57 1021.5
20260502034503 40 341 0.0 2.0 0.00 0.08 0.02 56 1022.0
20260502034220 40 347 1.0 2.0 0.00 0.08 0.02 56 1021.5
20260502033716 40 347 1.0 3.0 0.00 0.08 0.02 55 1021.5
20260502033217 40 353 1.0 3.0 0.00 0.08 0.02 54 1021.4
20260502033007 40 348 1.0 3.0 0.00 0.08 0.02 54 1021.9
20260502032718 40 359 0.0 2.0 0.00 0.08 0.02 54 1021.3
20260502032218 40 359 0.0 1.0 0.00 0.08 0.02 54 1021.3
20260502031716 40 359 0.0 0.0 0.00 0.08 0.02 55 1021.3
20260502031512 40 355 0.0 0.0 0.00 0.08 0.02 54 1021.8
20260502031215 41 359 0.0 0.0 0.00 0.08 0.02 53 1021.2
20260502030715 41 359 0.0 0.0 0.00 0.09 0.02 52 1021.0
20260502030213 41 359 0.0 0.0 0.00 0.09 0.02 51 1021.0
20260502030019 41 355 0.0 0.0 0.00 0.09 0.02 50 1021.7
20260502025714 42 359 0.0 0.0 0.00 0.09 0.02 50 1020.9
20260502025213 42 359 0.0 0.0 0.00 0.09 0.02 48 1020.9
20260502024710 42 359 0.0 0.0 0.00 0.10 0.02 48 1020.9
20260502024519 42 355 0.0 0.0 0.00 0.10 0.02 46 1021.4
20260502023706 43 359 0.0 0.0 0.00 0.10 0.02 45 1020.7
20260502023159 44 359 0.0 0.0 0.00 0.11 0.02 43 1020.7
20260502023007 44 355 0.0 0.0 0.00 0.11 0.02 42 1021.0
20260502022658 45 359 0.0 0.0 0.00 0.11 0.02 42 1020.7
20260502021657 46 359 0.0 0.0 0.00 0.13 0.02 39 1020.4
20260502021508 46 355 0.0 0.0 0.00 0.13 0.02 38 1020.9
20260502021158 47 359 0.0 0.0 0.00 0.13 0.02 38 1020.4
20260502020156 48 359 0.0 1.0 0.00 0.14 0.02 34 1020.4
20260502020017 47 355 0.0 1.0 0.00 0.14 0.02 33 1020.8
20260502015658 48 359 0.0 2.0 0.00 0.14 0.02 33 1020.4
20260502015157 48 359 0.0 2.0 0.00 0.14 0.02 32 1020.3
20260502014658 49 0 0.0 4.0 0.00 0.14 0.02 32 1020.2
20260502014520 48 360 0.0 4.0 0.00 0.14 0.02 31 1020.7
20260502014153 49 343 1.0 4.0 0.00 0.14 0.02 32 1020.2
20260502013652 49 359 1.0 6.0 0.00 0.14 0.02 32 1020.2
20260502013153 49 352 1.0 6.0 0.00 0.14 0.02 31 1020.1
20260502013022 49 349 0.0 6.0 0.00 0.14 0.02 31 1020.6
20260502012154 50 314 1.0 4.0 0.00 0.15 0.02 32 1020.1
20260502011655 50 327 1.0 4.0 0.00 0.15 0.02 32 1019.9
20260502011521 49 317 0.0 4.0 0.00 0.15 0.02 32 1020.4
20260502011155 50 333 1.0 5.0 0.00 0.15 0.02 34 1019.9
20260502010654 50 319 1.0 6.0 0.00 0.15 0.02 32 1019.8
20260502010156 50 6 1.0 6.0 0.00 0.16 0.02 33 1019.8
20260502010013 50 336 1.0 7.0 0.00 0.16 0.02 34 1020.4
20260502005651 50 321 1.0 6.0 0.00 0.16 0.02 34 1019.8
20260502005150 50 350 1.0 4.0 0.00 0.16 0.02 38 1019.8
20260502004515 50 109 0.0 7.0 0.00 0.16 0.02 37 1020.3
20260502004149 51 134 2.0 7.0 0.00 0.16 0.02 37 1019.7
20260502003651 51 31 3.0 7.0 0.00 0.16 0.02 38 1019.7
20260502003150 51 63 4.0 8.0 0.00 0.16 0.02 37 1019.7
20260502003025 51 72 3.0 9.0 0.00 0.16 0.02 35 1020.3
20260502002150 53 309 2.0 8.0 0.00 0.16 0.02 30 1019.6
20260502001650 53 30 2.0 8.0 0.00 0.16 0.02 34 1019.7
20260502001524 52 344 3.0 9.0 0.00 0.17 0.02 32 1020.2